Tracking 18851 objects as of 25-Nov-2017
HD Live streaming from Space Station
objects crossing your sky now

OPS 1264 (DMSP 4A F4)

Track OPS 1264 (DMSP 4A F4) now!
10-day predictions
OPS 1264 (DMSP 4A F4) is classified as:


NORAD ID: 2980
Int'l Code: 1967-096A
Perigee: 633.2 km
Apogee: 772.4 km
Inclination: 99.2 °
Period: 98.7 minutes
Semi major axis: 7073 km
RCS: 0.6338 m2 (medium)
Launch date: October 11, 1967
Source: United States (US)
Launch site: AIR FORCE WESTERN TEST RANGE (AFWTR)
aabbcc
Your satellite tracking list
Your tracking list is empty




NASA's NSSDC Master Catalog

Two Line Element Set (TLE):
1 02980U 67096A   17328.74259156  .00000055  00000-0  23564-4 0  9991
2 02980  99.2138  13.7520 0098368 224.0717 135.2609 14.59225053651798
Source of the keplerian elements: AFSPC